Total_Precipitation_Accumulation
0.89 1.00 1.09 1.10 1.16 1.25 1.34 1.39 1.44 1.37 1.33 1.27 1.06 1.00 0.97 0.95 0.98 0.91 0.96 0.77 0.52 0.43 0.42 0.44 0.45 0.49 0.61 0.79 0.96 1.11 1.33 1.49 1.60 1.70 1.78 1.90 2.02 2.15
1.03 1.15 1.15 1.13 1.14 1.22 1.35 1.51 1.60 1.56 1.40 1.17 1.06 1.08 1.11 1.01 0.95 0.81 0.78 0.74 0.55 0.43 0.39 0.40 0.40 0.42 0.47 0.61 0.76 0.89 1.04 1.16 1.29 1.41 1.48 1.53 1.59 1.73
0.95 1.05 1.11 1.13 1.16 1.19 1.28 1.36 1.51 1.63 1.49 1.26 1.21 1.27 1.32 1.27 1.10 0.91 0.77 0.71 0.60 0.49 0.39 0.38 0.38 0.42 0.49 0.56 0.68 0.78 0.85 0.92 1.04 1.17 1.29 1.38 1.44 1.49
0.99 1.00 0.96 1.00 1.10 1.11 1.16 1.19 1.29 1.50 1.46 1.35 1.37 1.41 1.43 1.37 1.28 1.09 0.89 0.79 0.74 0.58 0.43 0.38 0.37 0.39 0.42 0.43 0.51 0.66 0.77 0.84 0.87 0.90 0.97 1.09 1.23 1.34
0.92 0.91 0.86 0.88 0.91 0.99 1.08 1.05 1.07 1.19 1.33 1.38 1.46 1.54 1.61 1.50 1.33 1.19 1.06 0.97 0.77 0.65 0.54 0.45 0.41 0.39 0.39 0.40 0.43 0.52 0.64 0.77 0.86 0.90 0.92 0.98 1.04 1.13
0.83 0.76 0.76 0.79 0.82 0.89 0.99 1.02 1.04 1.11 1.23 1.31 1.45 1.64 1.67 1.71 1.60 1.37 1.25 1.18 0.93 0.68 0.63 0.56 0.50 0.45 0.41 0.37 0.38 0.44 0.54 0.70 0.85 0.94 0.99 1.08 1.14 1.15
0.85 0.77 0.73 0.70 0.73 0.79 0.79 0.84 0.94 1.02 1.04 1.12 1.25 1.47 1.60 1.71 1.67 1.48 1.33 1.34 1.20 0.89 0.75 0.68 0.65 0.58 0.53 0.47 0.39 0.38 0.46 0.60 0.79 0.95 1.03 1.13 1.25 1.31
0.82 0.78 0.69 0.61 0.61 0.60 0.56 0.61 0.69 0.75 0.84 0.98 1.04 1.23 1.43 1.54 1.67 1.74 1.60 1.45 1.38 1.21 1.13 1.02 0.89 0.82 0.70 0.56 0.47 0.37 0.37 0.46 0.59 0.74 0.88 1.02 1.14 1.30
0.81 0.79 0.63 0.54 0.61 0.61 0.58 0.53 0.52 0.55 0.63 0.82 0.93 1.01 1.23 1.44 1.64 1.80 1.80 1.73 1.60 1.51 1.46 1.39 1.16 1.00 0.84 0.71 0.62 0.48 0.39 0.35 0.40 0.49 0.59 0.73 0.86 0.98
0.77 0.82 0.81 0.75 0.74 0.76 0.74 0.65 0.57 0.55 0.60 0.65 0.72 0.87 1.13 1.50 1.70 1.76 1.88 1.90 1.84 1.75 1.70 1.65 1.46 1.26 1.09 0.95 0.85 0.65 0.52 0.44 0.41 0.41 0.44 0.50 0.62 0.74
0.77 0.80 0.82 0.77 0.76 0.67 0.66 0.63 0.61 0.61 0.58 0.59 0.61 0.70 0.87 1.14 1.53 1.67 1.71 1.66 1.60 1.43 1.32 1.36 1.36 1.35 1.30 1.19 1.05 0.91 0.74 0.60 0.54 0.52 0.51 0.51 0.57 0.67
0.85 0.83 0.76 0.69 0.66 0.60 0.61 0.67 0.63 0.60 0.65 0.65 0.62 0.61 0.63 0.79 1.10 1.33 1.39 1.38 1.27 1.24 1.03 0.99 1.01 1.08 1.19 1.10 1.00 0.95 0.89 0.88 0.80 0.68 0.62 0.59 0.68 0.66
0.92 0.92 0.85 0.76 0.64 0.62 0.64 0.69 0.69 0.69 0.77 0.79 0.76 0.73 0.75 0.78 0.86 1.04 1.23 1.29 1.21 1.02 0.92 0.93 0.91 0.92 0.92 0.89 0.87 0.83 0.86 0.91 0.90 0.86 0.81 0.80 0.84 0.82
1.02 1.01 1.01 0.85 0.70 0.66 0.63 0.60 0.62 0.60 0.65 0.73 0.71 0.68 0.68 0.69 0.74 0.88 1.06 1.18 1.24 1.10 1.00 1.04 1.02 0.93 0.88 0.78 0.73 0.70 0.72 0.84 0.97 1.07 1.04 1.03 1.01 1.09
1.01 1.01 0.95 0.82 0.68 0.60 0.61 0.60 0.55 0.54 0.60 0.67 0.67 0.59 0.55 0.61 0.72 0.88 1.02 1.15 1.18 1.13 1.02 1.01 1.02 1.00 0.95 0.83 0.70 0.65 0.68 0.75 0.84 1.02 1.20 1.25 1.20 1.20
0.99 0.95 0.85 0.80 0.70 0.66 0.67 0.62 0.56 0.62 0.68 0.68 0.71 0.71 0.70 0.74 0.79 0.85 0.95 1.04 1.10 1.04 0.98 0.98 1.05 1.10 1.01 0.85 0.81 0.73 0.70 0.72 0.71 0.80 1.05 1.30 1.49 1.56
1.22 1.17 1.09 1.01 0.89 0.82 0.82 0.84 0.84 0.89 0.85 0.84 0.88 0.94 0.92 0.86 0.83 0.87 1.00 1.04 0.99 0.93 0.93 0.98 1.05 1.16 1.14 0.98 0.88 0.79 0.77 0.72 0.65 0.68 0.83 1.01 1.23 1.46
1.14 1.12 1.10 1.04 0.97 0.97 1.02 1.03 1.01 1.02 0.99 1.00 1.01 1.05 1.05 0.98 0.90 0.90 1.00 1.05 0.99 0.92 0.90 0.93 1.08 1.23 1.24 1.11 0.80 0.68 0.68 0.67 0.67 0.77 0.86 0.85 0.89 1.00
1.15 1.15 1.13 1.12 1.07 1.06 1.07 1.07 1.04 1.04 1.09 1.11 1.12 1.13 1.17 1.17 1.13 1.06 1.04 1.08 1.06 1.02 0.97 0.97 1.05 1.10 1.01 0.86 0.74 0.58 0.59 0.63 0.73 0.82 0.89 0.82 0.72 0.77
1.11 1.15 1.13 1.12 1.10 1.08 1.05 1.07 1.08 1.11 1.12 1.11 1.14 1.17 1.23 1.24 1.25 1.17 1.09 1.06 1.07 1.10 1.08 1.01 0.94 0.90 0.87 0.80 0.75 0.72 0.63 0.70 0.76 0.79 0.82 0.84 0.78 0.74
1.06 1.05 1.01 0.96 0.95 0.97 0.97 0.96 0.97 0.98 1.00 1.07 1.07 1.08 1.13 1.12 1.09 1.06 1.06 1.05 1.05 1.10 1.03 0.86 0.81 0.90 1.05 1.16 0.97 0.72 0.68 0.69 0.81 0.90 0.94 0.98 0.92 0.88
0.99 0.94 0.92 0.88 0.88 0.90 0.92 0.91 0.91 0.93 0.98 1.06 1.07 1.05 1.07 1.04 0.99 0.99 1.04 1.06 1.03 1.03 1.05 1.02 1.11 1.18 1.19 1.13 0.94 0.80 0.81 0.88 0.94 0.99 0.98 0.91 0.84 0.77
0.93 0.89 0.88 0.83 0.81 0.82 0.83 0.85 0.89 0.94 0.98 1.03 1.07 1.09 1.11 1.07 1.01 1.01 1.05 1.10 1.10 1.12 1.25 1.29 1.24 1.20 1.12 1.10 1.07 0.99 0.96 1.04 1.14 1.15 1.07 0.92 0.69 0.54